Location: Pic du Midi - T1M
(42.9366°N, 0.1426°E)
Time: 02:22:56
(UTC+01:00)

DX 1 - Pass Details

Date: 23 September 2021
Orbit: 618 x 630 km, 98.4° (Epoch: 19 October)

Event Time Altitude Azimuth Distance (km) Brightness Sun altitude
Rises 22:01:26 0° 359° (N) 2,897 ? -33.0°
Reaches altitude 10° 22:04:01 10° 344° (NNW) 1,987 ? -33.4°
Maximum altitude 22:07:17 21° 295° (WNW) 1,387 ? -33.8°
Enters shadow 22:08:04 20° 279° (W) 1,429 ? -34.0°
